Location: Arborea
(39.7744°N, 8.5819°E)
Time: 05:43:31
(UTC+00:00)

Cosmos 2322 - Pass Details

Date: 05 June 2022
Orbit: 840 x 855 km, 71.0° (Epoch: 03 July)

Event Time Altitude Azimuth Distance (km) Brightness Sun altitude
Exits shadow 20:05:50 - 173° (S) 2,600 5.8 -12.3°
Reaches altitude 10° 20:06:11 10° 172° (S) 2,474 5.7 -12.4°
Maximum altitude 20:11:25 39° 105° (ESE) 1,270 4.2 -13.1°
Drops below altitude 10° 20:16:39 10° 39° (NE) 2,492 6.2 -13.8°
Sets 20:19:15 0° 31° (NNE) 3,432 7.1 -14.2°
